[[{"header":{"parameterUnit":"m.s-1","parameterCategory":2,"la1":30.2991,"la2":30.254,"lo1":-89.0895,"lo2":-89.0444,"dy":0.0017,"dx":0.0017,"nx":28,"ny":28,"refTime":"2023-04-26T21:00:00:Z","depth":"0","parameterNumber":2,"parameterNumberName":"U-component_of_CURRENTS"},"data":[0,0,0,0,0,0,0,0,0,0,0,0,0,0,0,0,0,0,0,0,0,0,0,0,0,0,0,0,0,0,0,0,0,0,0,0,0,0,0,0,0,0,0,0,0,0,0,0,0,0,0,0,0,0,0,0,0,0,0.5102,0.5101,0,0.4969,0.4967,0.4966,0.5016,0.5019,0.5022,0.5025,0.5127,0.5127,0.5127,0,0,0,0,0,0,0,0,0,0,0,0,0,0.5328,0.5324,0.5102,0.5101,0.5099,0.4969,0.4967,0.4966,0.5015,0.5019,0.5023,0.5026,0.5127,0.5127,0.5127,0,0,0,0,0,0,0,0,0,0,0,0,0,0.5216,0.5323,0.5103,0.5108,0.5107,0.4969,0.4967,0.4965,0.5015,0.5019,0.5024,0.5028,0.5127,0.5127,0.5127,0.5036,0,0,0.5127,0.5126,0,0,0,0,0,0,0,0,0.5223,0.5208,0.5109,0.5107,0.5106,0.5013,0.5084,0.5,0.5013,0.505,0.5025,0.503,0.5107,0.5109,0.5071,0.504,0.5045,0.5127,0.5126,0.5126,0.5126,0,0,0,0,0,0,0,0.5231,0.5214,0.505,0.5107,0.5105,0.5092,0.5082,0.5067,0.506,0.5047,0.505,0.5033,0.5109,0.5071,0.5075,0.5046,0.5127,0.5126,0.5126,0.5126,0.5026,0.5024,0,0,0,0,0,0,0.5244,0.522,0.5054,0.5046,0.5176,0.5085,0.5073,0.5039,0.5055,0.5059,0.503,0.5036,0.5069,0.5075,0.5079,0.5025,0.5126,0.5126,0.5126,0.5029,0.5026,0.5023,0,0,0,0,0,0,0.5249,0.5229,0.5059,0.5132,0.511,0.5077,0.5037,0.5034,0.5014,0.5039,0.5049,0.5017,0.5073,0.5079,0.5071,0.5029,0.5126,0.5126,0.5032,0.5028,0.5024,0.4885,0,0,0,0,0,0,0.5255,0.5231,0.5182,0.5132,0.5106,0.4967,0.5032,0.5028,0.4996,0.5004,0.503,0.5043,0.5077,0.507,0.5071,0.503,0.5126,0.5035,0.503,0.5026,0.4893,0.4877,0.4863,0,0,0,0,0,0.5264,0.5148,0.518,0.5159,0.5048,0.4964,0.4948,0.4942,0.4991,0.4949,0.4986,0.5043,0.5041,0.5067,0.5068,0.5027,0.5037,0.5032,0.5026,0.4899,0.488,0.4863,0,0,0,0,0,0,0.5161,0.5142,0.5176,0.5047,0.5021,0.4973,0.4896,0.4932,0.4918,0.4932,0.4999,0.501,0.5,0.5018,0.5046,0.4984,0.5051,0.5045,0.4955,0.4937,0.4922,0.4907,0.5126,0,0,0,0,0,0.5132,0.5067,0.5061,0.4947,0.4936,0.493,0.4889,0.4903,0.4893,0.489,0.4916,0.4943,0.4962,0.4959,0.4973,0.4913,0.4944,0.4891,0.4876,0.4863,0.485,0.4872,0.4858,0.5004,0.5004,0.5004,0,0,0.5036,0.5029,0.4976,0.4927,0.4897,0.4826,0.4914,0.4838,0.4794,0.4902,0.4834,0.4898,0.4942,0.4898,0.4892,0.4912,0.4828,0.4856,0.4845,0.4839,0.4865,0.4851,0.4838,0.5,0.5001,0.5001,0,0,0.4816,0.4836,0.4719,0.4718,0.4696,0.4711,0.4702,0.468,0.4692,0.4644,0.4734,0.4766,0.475,0.478,0.4798,0.4699,0.4767,0.4709,0.4597,0.4618,0.4607,0.4597,0.4579,0.4569,0.468,0.468,0.4679,0,0.4698,0.4587,0.466,0.4578,0.4555,0.4665,0.4558,0.4564,0.4547,0.4563,0.4606,0.4645,0.4688,0.468,0.465,0.4665,0.4682,0.4664,0.4599,0.4591,0.4584,0.4568,0.456,0.4672,0.4673,0.4674,0.4674,0,0.4418,0.4357,0.4282,0.4253,0.4245,0.4162,0.4236,0.4247,0.4309,0.4337,0.4364,0.4428,0.4462,0.448,0.4529,0.4503,0.4532,0.4598,0.4647,0.4561,0.4549,0.4543,0.4662,0.4664,0.4666,0.4668,0,0,0.4046,0.4082,0.4047,0.4051,0.4089,0.4054,0.4036,0.4051,0.4065,0.41,0.4094,0.4145,0.4241,0.4267,0.4355,0.4368,0.4323,0.4443,0.4448,0.4427,0.4338,0.4295,0.4285,0.4389,0.4388,0.4387,0.4337,0,0.3789,0.3646,0.3718,0.359,0.3548,0.3713,0.3696,0.3763,0.385,0.3881,0.4009,0.4031,0.4141,0.4173,0.4204,0.4329,0.4305,0.4328,0.4423,0.4424,0.4401,0.4276,0.4187,0.413,0.4331,0.433,0.4329,0,0.348,0.3452,0.3309,0.3385,0.3371,0.3324,0.3422,0.3421,0.3557,0.3632,0.3724,0.3845,0.3906,0.4005,0.4121,0.4137,0.4198,0.4279,0.428,0.4288,0.4369,0.4257,0.4112,0.3907,0.432,0.432,0.4321,0,0.3257,0.3172,0.3086,0.3091,0.3164,0.3151,0.3192,0.3327,0.3367,0.348,0.3525,0.3651,0.3713,0.383,0.4017,0.406,0.4136,0.4219,0.4218,0.4216,0.418,0.4176,0.3854,0.4232,0.4233,0.4233,0.4233,0,0.3011,0.2936,0.2978,0.2936,0.286,0.297,0.2938,0.3039,0.3147,0.3182,0.3371,0.3419,0.3677,0.3788,0.3937,0.4049,0.4065,0.4158,0.419,0.4123,0.4114,0.3974,0.3911,0.4231,0.4231,0.4232,0.4232,0,0.2839,0.2842,0.2763,0.2776,0.2771,0.2733,0.28,0.2811,0.2924,0.298,0.3006,0.3229,0.3378,0.3609,0.3804,0.3927,0.3931,0.4073,0.3958,0.3976,0.3788,0.3723,0.3468,0.3402,0.4043,0.4041,0.404,0,0.2776,0.2706,0.2657,0.2619,0.2618,0.2586,0.259,0.2692,0.2725,0.2866,0.2877,0.303,0.3178,0.3439,0.3683,0.3886,0.3797,0.3872,0.3932,0.37,0.3654,0.3588,0.3549,0.3816,0.3813,0.381,0.3808,0,0.2668,0.2635,0.2587,0.2508,0.2459,0.2435,0.2437,0.2427,0.2558,0.2616,0.2728,0.2842,0.3107,0.33,0.3547,0.3692,0.3656,0.3824,0.362,0.3444,0.3317,0.3296,0.3901,0.3786,0.3789,0.379,0.3791,0.3792,0.2605,0.2552,0.2483,0.2405,0.2365,0.2321,0.2271,0.2314,0.2348,0.2418,0.2544,0.2652,0.2863,0.3235,0.34,0.3453,0.3492,0.3389,0.3328,0.3281,0.319,0.3712,0.3624,0.3625,0.3626,0.3627,0.3628,0,0.2504,0.246,0.2405,0.2309,0.2243,0.2243,0.2206,0.2147,0.2163,0.2248,0.2334,0.2418,0.2584,0.2805,0.3,0.2965,0.2999,0.2834,0.269,0.2686,0.3164,0.3124,0.2879,0.2879,0.2879,0.2879,0.288,0.288,0.244,0.2332,0.2306,0.2195,0.2152,0.201,0.196,0.1919,0.1934,0.1917,0.1949,0.203,0.2178,0.2279,0.2349,0.238,0.2239,0.2158,0.2129,0.2407,0.2453,0.2497,0.2437,0.2052,0.2051,0.1638,0.1633,0.163]},{"header":{"parameterUnit":"m.s-1","parameterCategory":2,"la1":30.2991,"la2":30.254,"lo1":-89.0895,"lo2":-89.0444,"dy":0.0017,"dx":0.0017,"nx":28,"ny":28,"refTime":"2023-04-26T21:00:00:Z","depth":"0","parameterNumber":3,"parameterNumberName":"V-component_of_CURRENTS"},"data":[0,0,0,0,0,0,0,0,0,0,0,0,0,0,0,0,0,0,0,0,0,0,0,0,0,0,0,0,0,0,0,0,0,0,0,0,0,0,0,0,0,0,0,0,0,0,0,0,0,0,0,0,0,0,0,0,0,0,-0.1546,-0.1546,0,-0.156,-0.156,-0.156,-0.1521,-0.152,-0.1519,-0.1518,-0.152,-0.1521,-0.1522,0,0,0,0,0,0,0,0,0,0,0,0,0,-0.1457,-0.1459,-0.1546,-0.1546,-0.1546,-0.156,-0.156,-0.156,-0.1522,-0.152,-0.1519,-0.1518,-0.152,-0.1521,-0.1522,0,0,0,0,0,0,0,0,0,0,0,0,0,-0.1485,-0.146,-0.1546,-0.1529,-0.1528,-0.156,-0.156,-0.156,-0.1522,-0.152,-0.1518,-0.1517,-0.1519,-0.1521,-0.1522,-0.1566,0,0,-0.1528,-0.1528,0,0,0,0,0,0,0,0,-0.1484,-0.1488,-0.1531,-0.153,-0.1529,-0.1538,-0.153,-0.1562,-0.1522,-0.1523,-0.1518,-0.1516,-0.1527,-0.1528,-0.1533,-0.1566,-0.1566,-0.1528,-0.1529,-0.1529,-0.153,0,0,0,0,0,0,0,-0.1482,-0.1487,-0.155,-0.1532,-0.1531,-0.1512,-0.1514,-0.1536,-0.1533,-0.1523,-0.152,-0.1524,-0.1526,-0.1532,-0.1533,-0.1566,-0.1528,-0.1529,-0.153,-0.1531,-0.1616,-0.1618,0,0,0,0,0,0,-0.1486,-0.1486,-0.155,-0.1551,-0.1503,-0.1515,-0.1517,-0.1536,-0.1533,-0.1532,-0.1526,-0.1522,-0.153,-0.1531,-0.1533,-0.1559,-0.1529,-0.1531,-0.1532,-0.1615,-0.1617,-0.1618,0,0,0,0,0,0,-0.1484,-0.1492,-0.1549,-0.1518,-0.1524,-0.1519,-0.154,-0.1537,-0.1548,-0.1536,-0.1533,-0.1539,-0.1528,-0.153,-0.1552,-0.156,-0.1532,-0.1533,-0.1614,-0.1616,-0.1617,-0.1628,0,0,0,0,0,0,-0.1482,-0.1492,-0.1507,-0.1519,-0.1526,-0.157,-0.1541,-0.1539,-0.1553,-0.1549,-0.1547,-0.1544,-0.1527,-0.155,-0.1554,-0.1561,-0.1534,-0.1612,-0.1615,-0.1617,-0.1626,-0.163,-0.1634,0,0,0,0,0,-0.1479,-0.149,-0.1508,-0.1515,-0.1547,-0.1571,-0.1573,-0.1561,-0.1555,-0.1564,-0.1562,-0.1545,-0.1568,-0.1553,-0.1557,-0.1565,-0.1611,-0.1614,-0.1617,-0.1625,-0.163,-0.1634,0,0,0,0,0,0,-0.1433,-0.1489,-0.1507,-0.1529,-0.1556,-0.1564,-0.1565,-0.1576,-0.1584,-0.1578,-0.1567,-0.1566,-0.1586,-0.1586,-0.157,-0.1599,-0.1585,-0.1589,-0.159,-0.1595,-0.1598,-0.1576,-0.1536,0,0,0,0,0,-0.1442,-0.1469,-0.1519,-0.1527,-0.1552,-0.1571,-0.1579,-0.1583,-0.1592,-0.1593,-0.1592,-0.1595,-0.1604,-0.1607,-0.1615,-0.164,-0.1623,-0.1648,-0.1652,-0.1655,-0.1642,-0.1637,-0.1638,-0.1628,-0.1628,-0.1628,0,0,-0.1406,-0.1452,-0.1455,-0.1521,-0.1538,-0.1565,-0.157,-0.1589,-0.16,-0.1595,-0.1603,-0.1614,-0.1617,-0.1631,-0.164,-0.1629,-0.1651,-0.1659,-0.1661,-0.1646,-0.164,-0.164,-0.1641,-0.163,-0.1629,-0.1629,0,0,-0.1344,-0.1417,-0.1416,-0.1466,-0.152,-0.1555,-0.1571,-0.1605,-0.1613,-0.164,-0.1633,-0.1648,-0.1667,-0.1661,-0.1663,-0.1701,-0.1674,-0.1711,-0.1706,-0.1702,-0.1701,-0.1701,-0.1679,-0.1676,-0.1708,-0.1708,-0.1708,0,-0.1285,-0.1327,-0.1411,-0.1442,-0.147,-0.1556,-0.156,-0.1602,-0.163,-0.1635,-0.164,-0.1663,-0.1674,-0.1681,-0.169,-0.1706,-0.1693,-0.1684,-0.1703,-0.1703,-0.1702,-0.1679,-0.1676,-0.1709,-0.1709,-0.1709,-0.1709,0,-0.1238,-0.1282,-0.1291,-0.1371,-0.1419,-0.1444,-0.1531,-0.1575,-0.1611,-0.1633,-0.1657,-0.1677,-0.1679,-0.1699,-0.1705,-0.1713,-0.1701,-0.171,-0.1684,-0.1703,-0.1679,-0.1675,-0.171,-0.171,-0.171,-0.1709,0,0,-0.1026,-0.1217,-0.1206,-0.1256,-0.1393,-0.1416,-0.1483,-0.1544,-0.1561,-0.1616,-0.161,-0.1656,-0.167,-0.1675,-0.1694,-0.1701,-0.1697,-0.1704,-0.1703,-0.1667,-0.1671,-0.161,-0.16,-0.1707,-0.1707,-0.1707,-0.1653,0,-0.0937,-0.0998,-0.1111,-0.1149,-0.1196,-0.1335,-0.1382,-0.1459,-0.1522,-0.1553,-0.1607,-0.1611,-0.1663,-0.1654,-0.168,-0.1693,-0.1689,-0.1709,-0.167,-0.1668,-0.1599,-0.1595,-0.1467,-0.1404,-0.165,-0.165,-0.1649,0,-0.0823,-0.0897,-0.0934,-0.1082,-0.1106,-0.1142,-0.1246,-0.13,-0.1405,-0.1443,-0.1493,-0.1538,-0.1576,-0.1607,-0.1641,-0.1651,-0.1656,-0.1669,-0.1667,-0.1599,-0.1601,-0.1427,-0.1388,-0.1365,-0.1644,-0.1644,-0.1645,0,-0.0643,-0.0755,-0.0792,-0.0845,-0.1024,-0.1045,-0.1122,-0.1239,-0.1282,-0.1361,-0.1377,-0.1453,-0.1457,-0.151,-0.1569,-0.1596,-0.1588,-0.1623,-0.1569,-0.1564,-0.1439,-0.1423,-0.1356,-0.1618,-0.1619,-0.1619,-0.1619,0,-0.0526,-0.0542,-0.0711,-0.074,-0.0764,-0.0912,-0.0936,-0.1033,-0.1132,-0.1164,-0.129,-0.1307,-0.1432,-0.1466,-0.1531,-0.1533,-0.1554,-0.1551,-0.1543,-0.144,-0.1427,-0.1389,-0.143,-0.1617,-0.1617,-0.1618,-0.1618,0,-0.0352,-0.0464,-0.0518,-0.0667,-0.0699,-0.0712,-0.0846,-0.0877,-0.0973,-0.1016,-0.1033,-0.1172,-0.1219,-0.1327,-0.1389,-0.1443,-0.1433,-0.1459,-0.1324,-0.1302,-0.1242,-0.129,-0.1223,-0.1198,-0.1392,-0.139,-0.1388,0,-0.0293,-0.0305,-0.0438,-0.0469,-0.0537,-0.0588,-0.0638,-0.0774,-0.0819,-0.0931,-0.0937,-0.0998,-0.1043,-0.112,-0.1203,-0.1267,-0.1317,-0.1196,-0.1231,-0.12,-0.1248,-0.1283,-0.127,-0.107,-0.1066,-0.1062,-0.106,0,-0.018,-0.0221,-0.0284,-0.0345,-0.039,-0.0454,-0.0528,-0.0539,-0.0687,-0.0713,-0.0757,-0.0788,-0.0864,-0.0883,-0.0973,-0.1026,-0.1141,-0.1129,-0.1127,-0.1006,-0.1008,-0.0991,-0.1146,-0.103,-0.1033,-0.1035,-0.1037,-0.1038,-0.0086,-0.01,-0.0181,-0.0235,-0.0288,-0.0331,-0.0368,-0.0425,-0.0459,-0.052,-0.0564,-0.0563,-0.0601,-0.0708,-0.0785,-0.0807,-0.0916,-0.0814,-0.0878,-0.0918,-0.0879,-0.0962,-0.0827,-0.0829,-0.0831,-0.0832,-0.0833,0,0.0026,-0.0026,-0.0076,-0.0157,-0.0201,-0.0256,-0.032,-0.0355,-0.0365,-0.0361,-0.0374,-0.03,-0.0308,-0.0406,-0.0466,-0.0531,-0.0583,-0.0581,-0.0594,-0.06,-0.0668,-0.0636,-0.0417,-0.0417,-0.0417,-0.0417,-0.0417,-0.0417,0.0076,0.0059,0.0006,-0.006,-0.0125,-0.0191,-0.0227,-0.025,-0.026,-0.0212,-0.0152,-0.0136,-0.0115,-0.0224,-0.0316,-0.0368,-0.0435,-0.0431,-0.0532,-0.057,-0.0597,-0.0622,-0.0598,-0.0374,-0.0374,-0.0372,-0.0373,-0.0373]}],[{"header":{"parameterUnit":"m.s-1","parameterCategory":2,"la1":30.2991,"la2":30.254,"lo1":-89.0895,"lo2":-89.0444,"dy":0.0017,"dx":0.0017,"nx":28,"ny":28,"refTime":"2023-04-26T21:00:00:Z","depth":"2","parameterNumber":2,"parameterNumberName":"U-component_of_CURRENTS"},"data":[0,0,0,0,0,0,0,0,0,0,0,0,0,0,0,0,0,0,0,0,0,0,0,0,0,0,0,0,0,0,0,0,0,0,0,0,0,0,0,0,0,0,0,0,0,0,0,0,0,0,0,0,0,0,0,0,0,0,0.2643,0.2641,0,0.248,0.2478,0.2476,0.2451,0.2453,0.2455,0.2457,0.2424,0.2421,0.2419,0,0,0,0,0,0,0,0,0,0,0,0,0,0.2782,0.2781,0.2643,0.2641,0.2639,0.248,0.2478,0.2475,0.2451,0.2453,0.2455,0.2457,0.2425,0.2422,0.2419,0,0,0,0,0,0,0,0,0,0,0,0,0,0.2677,0.278,0.2643,0.2611,0.2607,0.2481,0.2478,0.2474,0.245,0.2453,0.2456,0.2458,0.2426,0.2422,0.2418,0.2339,0,0,0.2406,0.2405,0,0,0,0,0,0,0,0,0.2684,0.2672,0.2618,0.2613,0.2608,0.2493,0.2515,0.2437,0.245,0.2505,0.2457,0.246,0.246,0.2453,0.2408,0.2337,0.2336,0.2406,0.2404,0.2402,0.2401,0,0,0,0,0,0,0,0.2691,0.2678,0.2574,0.2616,0.261,0.2554,0.2543,0.2499,0.2468,0.2501,0.25,0.2487,0.2458,0.2412,0.2408,0.2335,0.2406,0.2403,0.24,0.2399,0.2361,0.2363,0,0,0,0,0,0,0.2724,0.2685,0.2579,0.257,0.2658,0.255,0.2538,0.2523,0.2466,0.2459,0.2485,0.2487,0.2417,0.2413,0.2407,0.244,0.2402,0.2398,0.2396,0.236,0.2362,0.2363,0,0,0,0,0,0,0.2727,0.2716,0.2586,0.2627,0.2608,0.2547,0.2529,0.2519,0.2522,0.2453,0.245,0.2507,0.2419,0.2413,0.2413,0.2435,0.2397,0.2393,0.2358,0.236,0.2362,0.2424,0,0,0,0,0,0,0.2732,0.2718,0.2733,0.263,0.2607,0.2559,0.2527,0.2514,0.2509,0.2511,0.2469,0.2466,0.2421,0.2419,0.2409,0.2429,0.239,0.2357,0.2359,0.2362,0.242,0.2428,0.2434,0,0,0,0,0,0.2737,0.2738,0.2734,0.2723,0.2625,0.256,0.2544,0.2505,0.2509,0.2518,0.2491,0.247,0.2429,0.2416,0.2404,0.2424,0.2355,0.2359,0.2362,0.2417,0.2426,0.2434,0,0,0,0,0,0,0.2784,0.2732,0.2727,0.2708,0.2667,0.256,0.2553,0.2532,0.2508,0.2519,0.247,0.2464,0.2479,0.2444,0.2431,0.2425,0.2394,0.2395,0.2441,0.2449,0.2456,0.2456,0.2387,0,0,0,0,0,0.2807,0.2806,0.2743,0.2728,0.2717,0.2646,0.2622,0.2595,0.255,0.2543,0.2511,0.2485,0.2467,0.2458,0.2433,0.2413,0.2416,0.2425,0.2432,0.2438,0.2433,0.2451,0.2459,0.2373,0.2373,0.2373,0,0,0.2803,0.2788,0.2776,0.2742,0.2699,0.2658,0.2639,0.261,0.2584,0.2542,0.2519,0.2512,0.2472,0.2459,0.2463,0.2439,0.2475,0.2442,0.2447,0.2438,0.2455,0.2464,0.2471,0.2375,0.2375,0.2374,0,0,0.2787,0.2802,0.2792,0.277,0.2739,0.2695,0.2707,0.2636,0.2631,0.2604,0.2579,0.2591,0.2542,0.2515,0.2496,0.2527,0.2521,0.2534,0.2553,0.2572,0.2579,0.2585,0.2644,0.2654,0.2527,0.2527,0.2527,0,0.2776,0.277,0.2776,0.276,0.2737,0.2723,0.2688,0.2665,0.2606,0.2606,0.2621,0.258,0.2562,0.254,0.2556,0.2542,0.2566,0.2521,0.258,0.2586,0.2591,0.265,0.2661,0.253,0.253,0.2529,0.2529,0,0.2743,0.2748,0.274,0.2721,0.2706,0.2678,0.2652,0.2655,0.2662,0.2635,0.2653,0.263,0.2612,0.2616,0.259,0.2615,0.2629,0.2597,0.2557,0.2603,0.2663,0.2674,0.2535,0.2534,0.2533,0.2532,0,0,0.263,0.2703,0.2692,0.27,0.2688,0.2656,0.2655,0.2634,0.2637,0.264,0.2642,0.2639,0.2662,0.2644,0.2633,0.2642,0.2721,0.264,0.2639,0.2697,0.2803,0.2753,0.2759,0.2701,0.2702,0.2703,0.2847,0,0.2579,0.259,0.2625,0.2596,0.2585,0.2605,0.2596,0.2594,0.2612,0.2619,0.2645,0.2651,0.2662,0.2674,0.2693,0.2702,0.2744,0.2688,0.275,0.2753,0.2699,0.2767,0.2442,0.2535,0.2857,0.2858,0.2859,0,0.249,0.2528,0.2525,0.2565,0.2558,0.2542,0.255,0.2547,0.2579,0.2607,0.2645,0.2668,0.2705,0.2705,0.278,0.2747,0.2793,0.2806,0.2811,0.274,0.2718,0.2532,0.2542,0.2876,0.2875,0.2874,0.2873,0,0.2395,0.2427,0.2447,0.2449,0.2493,0.25,0.2515,0.254,0.2544,0.261,0.2631,0.269,0.2721,0.278,0.2841,0.2822,0.2918,0.2891,0.2899,0.2899,0.2619,0.259,0.2958,0.2958,0.2958,0.2957,0.2957,0,0.2303,0.2301,0.2415,0.2413,0.241,0.246,0.2451,0.249,0.2531,0.2531,0.2628,0.2637,0.2739,0.2802,0.2861,0.2922,0.2953,0.2921,0.2925,0.2638,0.261,0.2883,0.2872,0.2963,0.2962,0.2961,0.296,0,0.2178,0.2258,0.2275,0.2355,0.2367,0.2365,0.24,0.2397,0.2473,0.248,0.2508,0.2611,0.27,0.2803,0.2902,0.2938,0.3,0.3017,0.2701,0.2664,0.2975,0.2966,0.3051,0.3051,0.305,0.305,0.3049,0,0.2126,0.2132,0.2217,0.223,0.2266,0.228,0.2276,0.2346,0.2349,0.244,0.2432,0.2547,0.2586,0.2748,0.2788,0.2901,0.2994,0.2719,0.261,0.2986,0.2982,0.2974,0.2966,0.2291,0.2284,0.2279,0.2275,0,0.2028,0.2072,0.211,0.2145,0.2155,0.2142,0.216,0.2149,0.2229,0.2223,0.226,0.231,0.2452,0.2379,0.2547,0.2593,0.2672,0.2615,0.3064,0.2319,0.228,0.2273,0.2288,0.2227,0.2231,0.2235,0.2237,0.2239,0.1963,0.1971,0.2046,0.2045,0.2057,0.2025,0.1946,0.1966,0.1927,0.1871,0.2007,0.1939,0.2045,0.2065,0.2135,0.2229,0.2421,0.2345,0.2356,0.2375,0.2262,0.2223,0.2142,0.2146,0.2149,0.2153,0.2155,0,0.1838,0.1897,0.1936,0.1938,0.1869,0.1911,0.1863,0.1742,0.1621,0.1608,0.156,0.1392,0.1391,0.1557,0.1572,0.1728,0.1707,0.1736,0.1594,0.1641,0.1683,0.1531,0.122,0.1218,0.1217,0.1215,0,0,0.1799,0.1781,0.1807,0.1727,0.1712,0.1567,0.1485,0.1334,0.1273,0.1085,0.0964,0.105,0.1285,0.1061,0.1189,0.1163,0.1393,0.1169,0.1895,0.1754,0.1792,0.2,0.1815,0,0,0,0,0]},{"header":{"parameterUnit":"m.s-1","parameterCategory":2,"la1":30.2991,"la2":30.254,"lo1":-89.0895,"lo2":-89.0444,"dy":0.0017,"dx":0.0017,"nx":28,"ny":28,"refTime":"2023-04-26T21:00:00:Z","depth":"2","parameterNumber":3,"parameterNumberName":"V-component_of_CURRENTS"},"data":[0,0,0,0,0,0,0,0,0,0,0,0,0,0,0,0,0,0,0,0,0,0,0,0,0,0,0,0,0,0,0,0,0,0,0,0,0,0,0,0,0,0,0,0,0,0,0,0,0,0,0,0,0,0,0,0,0,0,0.006,0.006,0,0.0119,0.0121,0.0122,0.012,0.0119,0.0117,0.0116,0.0049,0.0049,0.0048,0,0,0,0,0,0,0,0,0,0,0,0,0,0.0135,0.0133,0.006,0.006,0.006,0.0119,0.0121,0.0122,0.012,0.0119,0.0117,0.0115,0.0049,0.0049,0.0048,0,0,0,0,0,0,0,0,0,0,0,0,0,0.0144,0.0132,0.006,0.0063,0.0063,0.0119,0.0121,0.0122,0.012,0.0119,0.0117,0.0115,0.005,0.0049,0.0048,0.0082,0,0,0.0045,0.0045,0,0,0,0,0,0,0,0,0.0143,0.0141,0.0062,0.0062,0.0063,0.0106,0.0122,0.0101,0.0121,0.0104,0.0116,0.0114,0.0054,0.0053,0.0078,0.0079,0.0076,0.0045,0.0045,0.0044,0.0044,0,0,0,0,0,0,0,0.0142,0.014,0.0089,0.0062,0.0063,0.0126,0.0124,0.012,0.0091,0.0106,0.0104,0.0103,0.0054,0.0079,0.0076,0.0075,0.0045,0.0044,0.0044,0.0044,0.0,-0.0001,0,0,0,0,0,0,0.0116,0.0138,0.0087,0.009,0.0093,0.0125,0.0123,0.0098,0.0094,0.0091,0.0105,0.0103,0.0081,0.0077,0.0073,0.0009,0.0044,0.0044,0.0043,0.0001,-0.0,-0.0001,0,0,0,0,0,0,0.0117,0.011,0.0084,0.0113,0.0113,0.0123,0.0098,0.01,0.0068,0.0094,0.0089,0.0062,0.008,0.0074,0.0047,0.001,0.0043,0.0042,0.0001,0.0,-0.0,-0.0054,0,0,0,0,0,0,0.0118,0.0109,0.0066,0.011,0.011,0.0078,0.0099,0.0103,0.0071,0.0068,0.0056,0.0052,0.0078,0.0048,0.0046,0.0009,0.0042,0.0002,0.0001,-0.0,-0.0051,-0.0057,-0.0061,0,0,0,0,0,0.012,0.0064,0.0064,0.0057,0.0055,0.0077,0.0082,0.009,0.007,0.0053,0.0057,0.0049,0.0038,0.0047,0.0045,0.0007,0.0003,0.0001,-0.0,-0.0049,-0.0055,-0.0061,0,0,0,0,0,0,0.0069,0.006,0.006,-0.0,0.002,0.0073,0.0043,0.0055,0.0049,0.002,0.0047,0.0045,0.0011,0.0016,0.0026,-0.0008,0.0016,0.0014,-0.0021,-0.0027,-0.0031,-0.0063,0.0041,0,0,0,0,0,0.004,-0.0007,0.0016,-0.0032,-0.0038,-0.0006,-0.0008,-0.0001,0.001,0.0002,0.0001,-0.0001,0.0016,-0.0004,0.0009,-0.0018,-0.0019,-0.0045,-0.005,-0.0054,-0.0081,-0.0072,-0.0079,-0.0006,-0.0006,-0.0006,0,0,0.0011,-0.0004,-0.003,-0.0046,-0.0039,-0.0046,-0.0014,-0.0041,-0.0043,-0.0006,-0.0043,-0.0023,0.0008,-0.0002,-0.0021,-0.0016,-0.008,-0.0056,-0.006,-0.0084,-0.0075,-0.0082,-0.0088,-0.0007,-0.0006,-0.0006,0,0,-0.0056,-0.0094,-0.0148,-0.0142,-0.0153,-0.012,-0.0146,-0.0127,-0.0127,-0.0139,-0.0101,-0.0101,-0.0109,-0.0068,-0.005,-0.0082,-0.0097,-0.01,-0.0164,-0.0155,-0.0162,-0.0167,-0.0195,-0.0203,-0.0113,-0.0113,-0.0113,0,-0.0097,-0.0152,-0.0154,-0.0193,-0.0196,-0.0167,-0.0197,-0.0178,-0.0167,-0.0162,-0.0178,-0.0147,-0.013,-0.0101,-0.0113,-0.0095,-0.0114,-0.0142,-0.0163,-0.0168,-0.0173,-0.02,-0.0208,-0.0115,-0.0115,-0.0115,-0.0115,0,-0.0166,-0.0227,-0.0261,-0.0294,-0.0297,-0.0321,-0.0291,-0.0304,-0.0309,-0.0273,-0.0276,-0.0232,-0.0217,-0.0206,-0.0177,-0.0194,-0.0206,-0.016,-0.015,-0.0184,-0.021,-0.0217,-0.0119,-0.0118,-0.0118,-0.0117,0,0,-0.0194,-0.0295,-0.0304,-0.0334,-0.0354,-0.0349,-0.0374,-0.0351,-0.0355,-0.0357,-0.0352,-0.0324,-0.0315,-0.0295,-0.0253,-0.0255,-0.0302,-0.0251,-0.0249,-0.0286,-0.0333,-0.0229,-0.0227,-0.0271,-0.0272,-0.0273,-0.0344,0,-0.0238,-0.0335,-0.0365,-0.0423,-0.0455,-0.0446,-0.0453,-0.0436,-0.0418,-0.0405,-0.0364,-0.0352,-0.034,-0.0345,-0.0344,-0.029,-0.0322,-0.029,-0.0291,-0.0292,-0.0198,-0.023,-0.0201,-0.0252,-0.0351,-0.0352,-0.0353,0,-0.0259,-0.0325,-0.0407,-0.0475,-0.0489,-0.0511,-0.0505,-0.0517,-0.0483,-0.048,-0.0475,-0.0438,-0.0432,-0.0417,-0.0408,-0.0399,-0.0404,-0.0374,-0.0375,-0.0267,-0.0199,-0.023,-0.0261,-0.0365,-0.0364,-0.0363,-0.0362,0,-0.0215,-0.0334,-0.0398,-0.0419,-0.0492,-0.0521,-0.0553,-0.0538,-0.0533,-0.0536,-0.0532,-0.0516,-0.0503,-0.0507,-0.0458,-0.0461,-0.0438,-0.0414,-0.0336,-0.033,-0.0298,-0.0286,-0.0447,-0.0447,-0.0447,-0.0447,-0.0447,0,-0.0206,-0.0253,-0.039,-0.0418,-0.0465,-0.0531,-0.0552,-0.0577,-0.0592,-0.0567,-0.0583,-0.0543,-0.0532,-0.0494,-0.0485,-0.042,-0.0467,-0.0368,-0.0337,-0.0315,-0.0304,-0.0386,-0.0378,-0.045,-0.0449,-0.0448,-0.0448,0,-0.0124,-0.0222,-0.0296,-0.0417,-0.0445,-0.048,-0.0557,-0.056,-0.0611,-0.0584,-0.0598,-0.0574,-0.0533,-0.0497,-0.0466,-0.0428,-0.0385,-0.036,-0.0348,-0.0312,-0.0299,-0.0293,-0.0315,-0.0312,-0.0309,-0.0307,-0.0305,0,-0.0084,-0.0127,-0.0271,-0.0308,-0.0367,-0.0432,-0.0456,-0.0543,-0.0542,-0.0567,-0.0534,-0.0517,-0.0406,-0.033,-0.029,-0.0259,-0.0313,-0.0241,-0.0216,-0.0316,-0.0284,-0.0282,-0.028,-0.0226,-0.0224,-0.0222,-0.022,0,-0.0006,-0.0075,-0.0146,-0.023,-0.0284,-0.032,-0.038,-0.0368,-0.0443,-0.0395,-0.0313,-0.0239,-0.0202,-0.0106,-0.0102,-0.0096,-0.0237,-0.0195,-0.0309,-0.0227,-0.0227,-0.0196,-0.0199,-0.0203,-0.0205,-0.0206,-0.0207,-0.0208,0.0061,0.0032,-0.0078,-0.0145,-0.0189,-0.019,-0.021,-0.0208,-0.0153,-0.0112,-0.0068,0.0037,0.0011,0.0104,0.0053,-0.0057,-0.0045,-0.009,-0.0099,-0.011,-0.005,-0.004,0.0025,0.0025,0.0025,0.0024,0.0024,0,0.0169,0.0095,0.002,-0.0058,-0.0072,-0.0132,-0.0139,-0.0143,-0.0027,0.0054,0.0173,0.0231,0.0311,0.0185,0.0087,0.0066,-0.0001,-0.0005,-0.0086,-0.0099,-0.0111,-0.0056,0.0019,0.0018,0.0017,0.0017,0,0,0.0209,0.0173,0.0107,0.0075,0.0021,-0.0023,-0.0025,0.0013,0.005,0.0199,0.0275,0.0427,0.0339,0.0273,0.0193,0.0082,-0.0023,0.0049,0.0072,-0.0026,-0.004,-0.0121,-0.0043,0,0,0,0,0]}],[{"header":{"parameterUnit":"m.s-1","parameterCategory":2,"la1":30.2991,"la2":30.254,"lo1":-89.0895,"lo2":-89.0444,"dy":0.0017,"dx":0.0017,"nx":28,"ny":28,"refTime":"2023-04-26T21:00:00:Z","depth":"4","parameterNumber":2,"parameterNumberName":"U-component_of_CURRENTS"},"data":[0,0,0,0,0,0,0,0,0,0,0,0,0,0,0,0,0,0,0,0,0,0,0,0,0,0,0,0,0,0,0,0,0,0,0,0,0,0,0,0,0,0,0,0,0,0,0,0,0,0,0,0,0,0,0,0,0,0,-0.0297,-0.0296,0,-0.0229,-0.0228,-0.0228,-0.0103,-0.01,-0.0098,-0.0095,-0.0216,-0.0222,-0.0228,0,0,0,0,0,0,0,0,0,0,0,0,0,-0.0316,-0.0317,-0.0298,-0.0296,-0.0295,-0.0229,-0.0228,-0.0228,-0.0104,-0.01,-0.0097,-0.0093,-0.0214,-0.0221,-0.0229,0,0,0,0,0,0,0,0,0,0,0,0,0,-0.0289,-0.0318,-0.0298,-0.0221,-0.0213,-0.0229,-0.0228,-0.0228,-0.0105,-0.01,-0.0096,-0.0092,-0.0212,-0.0221,-0.0229,-0.0371,0,0,-0.0257,-0.0261,0,0,0,0,0,0,0,0,-0.0291,-0.029,-0.0234,-0.0226,-0.0217,-0.0165,-0.0279,-0.0283,-0.0106,-0.0152,-0.0095,-0.009,-0.0217,-0.0225,-0.0227,-0.0377,-0.0382,-0.0257,-0.0263,-0.0267,-0.0269,0,0,0,0,0,0,0,-0.0293,-0.0292,-0.0276,-0.0232,-0.0222,-0.0187,-0.018,-0.0279,-0.0217,-0.0147,-0.0137,-0.0122,-0.0214,-0.0218,-0.0229,-0.0384,-0.0257,-0.0265,-0.0271,-0.0274,-0.0556,-0.0558,0,0,0,0,0,0,-0.0296,-0.0294,-0.0278,-0.0273,-0.0238,-0.019,-0.0182,-0.0191,-0.0212,-0.0207,-0.0125,-0.0116,-0.0205,-0.0219,-0.0233,-0.0246,-0.0267,-0.0275,-0.028,-0.0554,-0.0556,-0.0558,0,0,0,0,0,0,-0.0297,-0.0297,-0.0281,-0.0276,-0.027,-0.0194,-0.0206,-0.0192,-0.0085,-0.0192,-0.0191,-0.0018,-0.0202,-0.0221,-0.0268,-0.0256,-0.0279,-0.0287,-0.0551,-0.0554,-0.0557,-0.0374,0,0,0,0,0,0,-0.0299,-0.0298,-0.0285,-0.0277,-0.027,-0.0223,-0.0209,-0.0193,-0.0086,-0.007,-0.0104,-0.0116,-0.02,-0.0254,-0.0276,-0.0269,-0.0294,-0.0548,-0.0552,-0.0556,-0.0378,-0.0371,-0.0365,0,0,0,0,0,-0.03,-0.0286,-0.0286,-0.0281,-0.0263,-0.0221,-0.0213,-0.0149,-0.0084,-0.0035,-0.0077,-0.0109,-0.0296,-0.0262,-0.0288,-0.0282,-0.0546,-0.0551,-0.0556,-0.038,-0.0372,-0.0365,0,0,0,0,0,0,-0.0266,-0.0273,-0.027,-0.0254,-0.0214,-0.0195,-0.0133,-0.009,-0.0077,-0.0033,-0.0128,-0.0147,-0.0199,-0.0278,-0.0237,-0.0387,-0.0432,-0.0442,-0.029,-0.0283,-0.0277,-0.0236,-0.0301,0,0,0,0,0,-0.0267,-0.0255,-0.0251,-0.0221,-0.0193,-0.0146,-0.0106,-0.0051,-0.0047,-0.0023,-0.0048,-0.0127,-0.0265,-0.0287,-0.04,-0.0461,-0.0508,-0.0486,-0.048,-0.0473,-0.0465,-0.0592,-0.0594,-0.0574,-0.0574,-0.0574,0,0,-0.0239,-0.0239,-0.0228,-0.0211,-0.0167,-0.0129,-0.0107,0.0002,0.0017,-0.0057,-0.0011,-0.0096,-0.0282,-0.0363,-0.0393,-0.0402,-0.0481,-0.0479,-0.0471,-0.0468,-0.0597,-0.0599,-0.06,-0.0578,-0.0577,-0.0576,0,0,-0.0178,-0.0174,-0.0144,-0.0106,-0.0028,-0.0029,0.0028,0.01,0.0123,0.0135,0.0038,-0.0045,-0.0136,-0.0311,-0.042,-0.046,-0.0456,-0.0449,-0.036,-0.0482,-0.0483,-0.0485,-0.0424,-0.0422,-0.0429,-0.0429,-0.0429,0,-0.0137,-0.012,-0.0116,-0.0063,-0.002,0.0029,0.0094,0.0084,0.0138,0.0098,0.0184,-0.0046,-0.0156,-0.0399,-0.0372,-0.0448,-0.0412,-0.0356,-0.0466,-0.047,-0.0475,-0.0414,-0.0414,-0.0421,-0.0422,-0.0422,-0.0423,0,-0.007,-0.0027,0.0019,0.0058,0.0098,0.0186,0.017,0.0203,0.0258,0.0221,0.0114,-0.0024,-0.0146,-0.0216,-0.0277,-0.0403,-0.0321,-0.0444,-0.0459,-0.0464,-0.04,-0.0403,-0.0409,-0.0412,-0.0414,-0.0416,0,0,-0.0051,0.0038,0.0061,0.0101,0.0186,0.0217,0.0215,0.0166,0.0135,0.0167,0.0106,-0.0094,-0.0071,-0.0195,-0.0297,-0.0387,-0.0339,-0.0341,-0.0351,-0.0228,-0.0402,-0.0251,-0.0239,-0.0418,-0.0421,-0.0423,-0.0294,0,0.0011,0.0103,0.0129,0.0228,0.028,0.0294,0.0258,0.0222,0.0196,0.0145,-0.0027,-0.0089,-0.0104,-0.0083,-0.0185,-0.0328,-0.0355,-0.0351,-0.0463,-0.0464,-0.0292,-0.0247,-0.0432,-0.0297,-0.0298,-0.0299,-0.0299,0,0.0062,0.0111,0.0216,0.0272,0.0295,0.0347,0.0302,0.0297,0.0156,0.0156,0.0085,0.0023,-0.0084,-0.0085,-0.0254,-0.0195,-0.0234,-0.0343,-0.0345,-0.0282,-0.0325,-0.0334,-0.0307,-0.0306,-0.0306,-0.0305,-0.0305,0,0.0049,0.0167,0.0241,0.0285,0.0341,0.0367,0.0399,0.0308,0.027,0.0229,0.0248,0.0093,0.0091,-0.0032,-0.0128,-0.0127,-0.0308,-0.0391,-0.0314,-0.0297,-0.0549,-0.0551,-0.0526,-0.0526,-0.0527,-0.0527,-0.0527,0,0.0083,0.0142,0.0257,0.0304,0.0351,0.0422,0.044,0.0418,0.0385,0.0336,0.0329,0.0279,0.0123,0.0011,-0.0087,-0.0143,-0.0258,-0.0253,-0.0281,-0.0459,-0.0453,-0.0542,-0.0546,-0.0522,-0.0523,-0.0524,-0.0525,0,0.0055,0.0141,0.0217,0.0317,0.036,0.0414,0.0519,0.0486,0.0534,0.0494,0.0538,0.0454,0.0412,0.0222,0.0003,-0.0053,-0.0191,-0.0214,-0.0244,-0.0284,-0.007,-0.0067,-0.0027,-0.0021,-0.0016,-0.0012,-0.0009,0,0.0052,0.0101,0.0222,0.028,0.0353,0.0459,0.0488,0.0553,0.0542,0.057,0.0528,0.0536,0.0474,0.0297,0.0141,0.0022,-0.0061,-0.0039,-0.0155,0.0,-0.0032,-0.0037,-0.004,-0.0001,0.0001,0.0002,0.0003,0,0.0024,0.0074,0.0123,0.0236,0.0323,0.0372,0.0465,0.0467,0.0528,0.0573,0.0541,0.0526,0.0461,0.0341,0.0273,0.013,-0.0001,0.0012,-0.0001,-0.011,0.0031,-0.0006,-0.0015,0.002,0.0018,0.0016,0.0015,0,-0.0002,0.0018,0.0094,0.0195,0.0253,0.0271,0.0336,0.0379,0.0398,0.0465,0.0452,0.0436,0.0431,0.04,0.0293,0.0249,0.023,0.0184,0.0161,0.0142,0.013,0.033,0.0422,0,0,0,0,0,-0.0016,0.0008,0.0065,0.0156,0.0186,0.0223,0.0276,0.0335,0.042,0.0387,0.0431,0.0387,0.0383,0.0366,0.0345,0.0375,0.0209,0.0358,0.0138,0.0115,0.0096,0.0062,0,0,0,0,0,0,-0.003,0.0007,0.0036,0.0068,0.0128,0.0144,0.0163,0.0225,0.0222,0.0324,0.0285,0.0414,0.0354,0.0372,0.0345,0.0351,0.022,0.0383,0.0384,0.0127,0.0109,0.0093,0.0051,0,0,0,0,0]},{"header":{"parameterUnit":"m.s-1","parameterCategory":2,"la1":30.2991,"la2":30.254,"lo1":-89.0895,"lo2":-89.0444,"dy":0.0017,"dx":0.0017,"nx":28,"ny":28,"refTime":"2023-04-26T21:00:00:Z","depth":"4","parameterNumber":3,"parameterNumberName":"V-component_of_CURRENTS"},"data":[0,0,0,0,0,0,0,0,0,0,0,0,0,0,0,0,0,0,0,0,0,0,0,0,0,0,0,0,0,0,0,0,0,0,0,0,0,0,0,0,0,0,0,0,0,0,0,0,0,0,0,0,0,0,0,0,0,0,0.0713,0.0715,0,0.078,0.0779,0.0778,0.0841,0.0844,0.0846,0.0849,0.0775,0.0771,0.0767,0,0,0,0,0,0,0,0,0,0,0,0,0,0.0577,0.0578,0.0713,0.0716,0.0718,0.078,0.0779,0.0778,0.0841,0.0844,0.0847,0.085,0.0777,0.0772,0.0766,0,0,0,0,0,0,0,0,0,0,0,0,0,0.0621,0.0579,0.0713,0.0771,0.0778,0.078,0.0779,0.0778,0.084,0.0844,0.0848,0.0851,0.0778,0.0772,0.0766,0.065,0,0,0.0746,0.0743,0,0,0,0,0,0,0,0,0.0619,0.0624,0.076,0.0767,0.0775,0.0823,0.0705,0.0735,0.0839,0.0797,0.0849,0.0853,0.0787,0.078,0.076,0.0647,0.0644,0.0745,0.0742,0.0739,0.0737,0,0,0,0,0,0,0,0.0616,0.0621,0.072,0.0762,0.0772,0.0774,0.0782,0.071,0.0753,0.0801,0.081,0.0846,0.0789,0.0766,0.0759,0.0643,0.0746,0.074,0.0736,0.0733,0.0559,0.0559,0,0,0,0,0,0,0.0644,0.0618,0.0719,0.0724,0.0726,0.0774,0.0783,0.0788,0.0757,0.0763,0.0843,0.0849,0.0775,0.0766,0.0756,0.0739,0.0739,0.0733,0.0729,0.056,0.0559,0.0558,0,0,0,0,0,0,0.064,0.0651,0.0716,0.069,0.0701,0.0775,0.0778,0.0788,0.0866,0.0794,0.0794,0.0927,0.0778,0.0765,0.0723,0.0733,0.073,0.0724,0.0561,0.056,0.0559,0.0627,0,0,0,0,0,0,0.0635,0.0648,0.0674,0.0691,0.0704,0.077,0.0777,0.0787,0.0886,0.0896,0.0863,0.0855,0.078,0.0733,0.0717,0.0724,0.0719,0.0562,0.056,0.0559,0.0626,0.0628,0.063,0,0,0,0,0,0.0629,0.0665,0.0674,0.0689,0.0732,0.0774,0.0779,0.0831,0.0888,0.0916,0.0872,0.0861,0.0714,0.0726,0.0708,0.0713,0.0563,0.0561,0.0559,0.0624,0.0628,0.063,0,0,0,0,0,0,0.0634,0.0677,0.0687,0.0737,0.0777,0.0794,0.087,0.0886,0.0878,0.0929,0.0837,0.0821,0.0783,0.0738,0.0755,0.0658,0.0642,0.0636,0.0698,0.07,0.0702,0.0721,0.0714,0,0,0,0,0,0.0642,0.0683,0.0712,0.0765,0.0814,0.0853,0.0893,0.0931,0.093,0.0942,0.0903,0.0847,0.074,0.0723,0.064,0.0591,0.0578,0.0586,0.0588,0.0591,0.0592,0.0546,0.0545,0.0553,0.0553,0.0553,0,0,0.067,0.07,0.0729,0.0771,0.0833,0.087,0.0887,0.1003,0.0995,0.0925,0.0932,0.0861,0.0727,0.0652,0.0636,0.0635,0.0593,0.0589,0.0592,0.0591,0.0544,0.0544,0.0543,0.0551,0.0552,0.0552,0,0,0.0727,0.0782,0.0826,0.0876,0.0984,0.0977,0.1034,0.1089,0.1092,0.1072,0.0989,0.0923,0.0834,0.0697,0.0615,0.0585,0.06,0.0598,0.0633,0.0589,0.0588,0.0587,0.0627,0.0628,0.0609,0.0609,0.0609,0,0.0764,0.0803,0.0851,0.0917,0.0985,0.1036,0.1103,0.1075,0.1089,0.1043,0.1107,0.0903,0.0829,0.0628,0.0628,0.0589,0.0615,0.0634,0.0595,0.0593,0.0591,0.0631,0.0632,0.0612,0.0612,0.0611,0.0611,0,0.0823,0.0891,0.0961,0.1021,0.1077,0.1179,0.1171,0.1177,0.1207,0.1141,0.104,0.0927,0.0811,0.0767,0.0694,0.0607,0.0651,0.06,0.0597,0.0595,0.0637,0.0637,0.0616,0.0615,0.0614,0.0614,0,0,0.0823,0.0961,0.0994,0.1046,0.1167,0.1206,0.12,0.1143,0.1099,0.1089,0.1005,0.0841,0.0835,0.0743,0.0651,0.0608,0.064,0.0639,0.0635,0.0697,0.0639,0.0546,0.0538,0.0612,0.0611,0.061,0.0696,0,0.0867,0.0969,0.1033,0.1143,0.1212,0.1261,0.1227,0.1184,0.113,0.1041,0.0909,0.083,0.0801,0.0799,0.0736,0.0633,0.0637,0.0627,0.0613,0.0614,0.0544,0.053,0.0607,0.0696,0.0696,0.0696,0.0696,0,0.09,0.0959,0.1082,0.1179,0.1224,0.1285,0.1265,0.1244,0.1086,0.106,0.0961,0.0881,0.0771,0.08,0.0682,0.0701,0.071,0.0656,0.0657,0.0538,0.0516,0.0679,0.0696,0.0696,0.0696,0.0696,0.0696,0,0.0857,0.0995,0.1087,0.115,0.1248,0.1305,0.1346,0.1258,0.1202,0.1111,0.1082,0.093,0.0898,0.085,0.0743,0.0773,0.0626,0.0642,0.0564,0.0562,0.0597,0.0596,0.0612,0.0612,0.0612,0.0612,0.0612,0,0.0854,0.0939,0.1093,0.1166,0.123,0.1342,0.1362,0.1344,0.1291,0.1188,0.1142,0.1023,0.0925,0.0793,0.0756,0.063,0.0653,0.0571,0.0552,0.0632,0.0633,0.0602,0.0599,0.0615,0.0614,0.0614,0.0613,0,0.0804,0.091,0.1031,0.1189,0.124,0.1311,0.1422,0.1367,0.1393,0.1274,0.1285,0.1114,0.0981,0.0829,0.07,0.0638,0.0534,0.0496,0.0622,0.0608,0.0539,0.0539,0.0497,0.0494,0.0491,0.0489,0.0487,0,0.0787,0.0856,0.1058,0.1115,0.1223,0.1328,0.1353,0.1413,0.136,0.1272,0.1187,0.1061,0.0924,0.0671,0.0555,0.0471,0.044,0.0463,0.0487,0.0529,0.0516,0.052,0.0524,0.0483,0.0482,0.0482,0.0481,0,0.0735,0.0849,0.0939,0.105,0.1145,0.1185,0.1264,0.1232,0.1242,0.1255,0.1083,0.0962,0.0758,0.0599,0.0504,0.0432,0.0479,0.0436,0.0444,0.0468,0.0511,0.0502,0.0509,0.0472,0.0473,0.0474,0.0474,0,0.0731,0.0755,0.087,0.0963,0.103,0.1025,0.1094,0.1074,0.1055,0.1025,0.094,0.0795,0.0726,0.0574,0.0459,0.0386,0.0421,0.046,0.0468,0.0478,0.0407,0.0455,0.0378,0,0,0,0,0,0.0674,0.0669,0.0743,0.0831,0.0886,0.0908,0.0977,0.1033,0.1055,0.093,0.096,0.0783,0.0616,0.0523,0.0439,0.042,0.0398,0.0323,0.0445,0.042,0.0431,0.0335,0,0,0,0,0,0,0.0619,0.0663,0.0684,0.0657,0.0696,0.071,0.075,0.0797,0.0758,0.0803,0.0702,0.0758,0.0578,0.0632,0.0417,0.0397,0.0471,0.0274,0.0274,0.0414,0.0424,0.0432,0.0338,0,0,0,0,0]}]]